,,PA_Meas_PMT16A,,PR_Meas_QMR101_102,,RH_Meas_QMH101,,SR_Meas_QMS101,,TA_Meas_QMH101,,GenWind,,GenWind,
time,status,PA,status,PR,status,RH,status,SR,status,TA,status,DirAvg,status,SpdAvg,
2012-06-24, 00:00:05,VALID,918.12,VALID,0,VALID,97.5873,VALID,0,VALID,18.3603,VALID,81,VALID,0,
2012-06-24, 00:01:05,VALID,918.132,VALID,0,VALID,97.6026,VALID,0,VALID,18.3408,VALID,81,VALID,0,
2012-06-24, 00:02:05,VALID,918.102,VALID,0,VALID,97.5873,VALID,0,VALID,18.3213,VALID,81,VALID,0,
2012-06-24, 00:03:05,VALID,918.119,VALID,0,VALID,97.5873,VALID,0,VALID,18.3004,VALID,81,VALID,0,
2012-06-24, 00:04:05,VALID,918.088,VALID,0,VALID,97.5797,VALID,0,VALID,18.2823,VALID,81,VALID,0,
2012-06-24, 00:05:05,VALID,918.065,VALID,0,VALID,97.5873,VALID,0,VALID,18.3213,VALID,81,VALID,0,
2012-06-24, 00:06:05,VALID,918.051,VALID,0,VALID,97.6026,VALID,0,VALID,18.3408,VALID,81,VALID,0,
2012-06-24, 00:07:05,VALID,918.032,VALID,0,VALID,97.6102,VALID,0.107441,VALID,18.3199,VALID,81,VALID,0,
2012-06-24, 00:08:05,VALID,918.021,VALID,0,VALID,97.6026,VALID,0,VALID,18.3603,VALID,81,VALID,0,
2012-06-24, 00:09:05,VALID,918.009,VALID,0,VALID,97.5873,VALID,0,VALID,18.3018,VALID,81,VALID,0,
2012-06-24, 00:10:05,VALID,918.019,VALID,0,VALID,97.5797,VALID,0,VALID,18.242,VALID,81,VALID,0,
2012-06-24, 00:11:05,VALID,918.002,VALID,0,VALID,97.595,VALID,0,VALID,18.2238,VALID,81,VALID,0,
2012-06-24, 00:12:05,VALID,918.003,VALID,0,VALID,97.5873,VALID,0,VALID,18.1849,VALID,81,VALID,0,
2012-06-24, 00:13:05,VALID,918.006,VALID,0,VALID,97.5873,VALID,0,VALID,18.1835,VALID,81,VALID,0,
2012-06-24, 00:14:05,VALID,917.975,VALID,0,VALID,97.5873,VALID,0.107441,VALID,18.164,VALID,81,VALID,0,
2012-06-24, 00:15:05,VALID,917.968,VALID,0,VALID,97.595,VALID,0,VALID,18.1445,VALID,81,VALID,0,
2012-06-24, 00:16:05,VALID,917.96,VALID,0,VALID,97.6255,VALID,0,VALID,18.1055,VALID,81,VALID,0,
2012-06-24, 00:17:05,VALID,917.928,VALID,0,VALID,97.534,VALID,0.107441,VALID,18.047,VALID,102,VALID,0,
2012-06-24, 00:18:05,VALID,917.885,VALID,0,VALID,97.6178,VALID,0,VALID,18.086,VALID,110,VALID,0,
2012-06-24, 00:19:05,VALID,917.903,VALID,0,VALID,97.6255,VALID,0,VALID,18.1849,VALID,110,VALID,0,
2012-06-24, 00:20:05,VALID,917.86,VALID,0,VALID,97.6407,VALID,0.107441,VALID,18.1445,VALID,132,VALID,0,
2012-06-24, 00:21:05,VALID,917.847,VALID,0,VALID,97.6712,VALID,0,VALID,18.2044,VALID,133,VALID,0,
2012-06-24, 00:22:05,VALID,917.84,VALID,0,VALID,97.656,VALID,0.107441,VALID,18.164,VALID,133,VALID,0,
2012-06-24, 00:23:05,VALID,917.831,VALID,0,VALID,97.6712,VALID,0,VALID,18.1654,VALID,133,VALID,0,
2012-06-24, 00:24:05,VALID,917.813,VALID,0,VALID,97.6636,VALID,0.107441,VALID,18.1835,VALID,133,VALID,0,
2012-06-24, 00:25:05,VALID,917.815,VALID,0,VALID,97.6636,VALID,0,VALID,18.2252,VALID,133,VALID,0,
2012-06-24, 00:26:05,VALID,917.767,VALID,0,VALID,97.6788,VALID,0,VALID,18.2057,VALID,133,VALID,0,
2012-06-24, 00:27:05,VALID,917.774,VALID,0,VALID,97.6712,VALID,0,VALID,18.2252,VALID,133,VALID,0,
2012-06-24, 00:28:05,VALID,917.782,VALID,0,VALID,97.6636,VALID,0,VALID,18.3032,VALID,133,VALID,0,
2012-06-24, 00:29:05,VALID,917.732,VALID,0,VALID,97.6865,VALID,0,VALID,18.3422,VALID,133,VALID,0,
2012-06-24, 00:30:05,VALID,917.732,VALID,0,VALID,97.6712,VALID,0,VALID,18.2823,VALID,118,VALID,0,
2012-06-24, 00:31:05,VALID,917.729,VALID,0,VALID,97.6788,VALID,0,VALID,18.3422,VALID,120,VALID,0,
2012-06-24, 00:32:05,VALID,917.713,VALID,0,VALID,97.6941,VALID,0,VALID,18.3617,VALID,120,VALID,0,
2012-06-24, 00:33:05,VALID,917.676,VALID,0,VALID,97.6788,VALID,0,VALID,18.3213,VALID,120,VALID,0,
2012-06-24, 00:34:05,VALID,917.685,VALID,0,VALID,97.6865,VALID,0,VALID,18.3812,VALID,120,VALID,0,
2012-06-24, 00:35:05,VALID,917.66,VALID,0,VALID,97.6788,VALID,0,VALID,18.3617,VALID,120,VALID,0,
2012-06-24, 00:36:05,VALID,917.629,VALID,0,VALID,97.7017,VALID,0,VALID,18.3422,VALID,120,VALID,0,
2012-06-24, 00:37:05,VALID,917.629,VALID,0,VALID,97.6941,VALID,0,VALID,18.3422,VALID,120,VALID,0,
2012-06-24, 00:38:05,VALID,917.654,VALID,0,VALID,97.6865,VALID,0,VALID,18.3422,VALID,120,VALID,0,
2012-06-24, 00:39:05,VALID,917.621,VALID,0,VALID,97.6865,VALID,0,VALID,18.3227,VALID,120,VALID,0,
2012-06-24, 00:40:05,VALID,917.621,VALID,0,VALID,97.6941,VALID,0,VALID,18.3603,VALID,120,VALID,0,
2012-06-24, 00:41:05,VALID,917.639,VALID,0,VALID,97.6788,VALID,0.107441,VALID,18.3784,VALID,120,VALID,0,
2012-06-24, 00:42:05,VALID,917.638,VALID,0,VALID,97.6941,VALID,0.107441,VALID,18.4174,VALID,120,VALID,0,
2012-06-24, 00:43:05,VALID,917.635,VALID,0,VALID,97.6941,VALID,0,VALID,18.4369,VALID,120,VALID,0,
2012-06-24, 00:44:05,VALID,917.622,VALID,0,VALID,97.6941,VALID,0,VALID,18.4174,VALID,120,VALID,0,
2012-06-24, 00:45:05,VALID,917.578,VALID,0,VALID,97.7017,VALID,0,VALID,18.3784,VALID,120,VALID,0,
2012-06-24, 00:46:05,VALID,917.561,VALID,0,VALID,97.7017,VALID,0,VALID,18.3603,VALID,120,VALID,0,
2012-06-24, 00:47:05,VALID,917.542,VALID,0,VALID,97.6788,VALID,0,VALID,18.3798,VALID,107,VALID,0,
2012-06-24, 00:48:05,VALID,917.566,VALID,0,VALID,97.7017,VALID,0,VALID,18.3617,VALID,107,VALID,0,
2012-06-24, 00:49:05,VALID,917.56,VALID,0,VALID,97.6865,VALID,0,VALID,18.3408,VALID,107,VALID,0,
2012-06-24, 00:50:05,VALID,917.528,VALID,0,VALID,97.6865,VALID,0,VALID,18.3213,VALID,107,VALID,0,
2012-06-24, 00:51:05,VALID,917.563,VALID,0,VALID,97.6788,VALID,0,VALID,18.3018,VALID,107,VALID,0,
2012-06-24, 00:52:05,VALID,917.572,VALID,0,VALID,97.7093,VALID,0,VALID,18.3018,VALID,107,VALID,0,
2012-06-24, 00:53:05,VALID,917.563,VALID,0,VALID,97.6941,VALID,0,VALID,18.3213,VALID,107,VALID,0,
2012-06-24, 00:54:05,VALID,917.555,VALID,0,VALID,97.6941,VALID,0,VALID,18.3018,VALID,107,VALID,0,
2012-06-24, 00:55:05,VALID,917.567,VALID,0,VALID,97.7169,VALID,0,VALID,18.3018,VALID,107,VALID,0,
2012-06-24, 00:56:05,VALID,917.577,VALID,0,VALID,97.7169,VALID,0,VALID,18.3408,VALID,107,VALID,0,
2012-06-24, 00:57:05,VALID,917.594,VALID,0,VALID,97.7169,VALID,0,VALID,18.3408,VALID,107,VALID,0,
2012-06-24, 00:58:05,VALID,917.6,VALID,0,VALID,97.7017,VALID,0,VALID,18.3018,VALID,107,VALID,0,
2012-06-24, 00:59:05,VALID,917.592,VALID,0,VALID,97.7017,VALID,0,VALID,18.3213,VALID,107,VALID,0,
2012-06-24, 01:00:05,VALID,917.608,VALID,0,VALID,97.7246,VALID,0,VALID,18.3018,VALID,107,VALID,0,
2012-06-24, 01:01:05,VALID,917.62,VALID,0,VALID,97.7169,VALID,0,VALID,18.2823,VALID,107,VALID,0,
2012-06-24, 01:02:05,VALID,917.591,VALID,0,VALID,97.6941,VALID,0,VALID,18.1835,VALID,107,VALID,0,
2012-06-24, 01:03:05,VALID,917.623,VALID,0,VALID,97.6865,VALID,0,VALID,18.0874,VALID,107,VALID,0,
2012-06-24, 01:04:05,VALID,917.634,VALID,0,VALID,97.6788,VALID,0,VALID,18.0289,VALID,107,VALID,0,
2012-06-24, 01:05:05,VALID,917.61,VALID,0,VALID,97.6712,VALID,0.107441,VALID,17.9704,VALID,107,VALID,0,
2012-06-24, 01:06:05,VALID,917.644,VALID,0,VALID,97.6865,VALID,0,VALID,17.9509,VALID,106,VALID,0,
2012-06-24, 01:07:05,VALID,917.62,VALID,0,VALID,97.6941,VALID,0,VALID,17.9119,VALID,107,VALID,0,
2012-06-24, 01:08:05,VALID,917.574,VALID,0,VALID,97.7017,VALID,0.107441,VALID,17.8716,VALID,107,VALID,0,
2012-06-24, 01:09:05,VALID,917.555,VALID,0,VALID,97.7322,VALID,0,VALID,17.8925,VALID,107,VALID,0,
2012-06-24, 01:10:05,VALID,917.537,VALID,0,VALID,97.7246,VALID,0,VALID,17.8925,VALID,107,VALID,0,
2012-06-24, 01:11:05,VALID,917.495,VALID,0,VALID,97.7246,VALID,0,VALID,17.873,VALID,107,VALID,0,
2012-06-24, 01:12:05,VALID,917.462,VALID,0,VALID,97.7474,VALID,0,VALID,17.873,VALID,120,VALID,0,
2012-06-24, 01:13:05,VALID,917.447,VALID,0,VALID,97.7551,VALID,0,VALID,17.873,VALID,120,VALID,0,
2012-06-24, 01:14:05,VALID,917.429,VALID,0,VALID,97.7474,VALID,0,VALID,17.9119,VALID,120,VALID,0,
2012-06-24, 01:15:05,VALID,917.395,VALID,0,VALID,97.7474,VALID,0,VALID,17.9119,VALID,145,VALID,0,
2012-06-24, 01:16:05,VALID,917.345,VALID,0,VALID,97.7627,VALID,0,VALID,17.873,VALID,145,VALID,0,
2012-06-24, 01:17:05,VALID,917.39,VALID,0,VALID,97.7779,VALID,0,VALID,17.8911,VALID,145,VALID,0,
2012-06-24, 01:18:05,VALID,917.344,VALID,0,VALID,97.7703,VALID,0,VALID,17.9509,VALID,145,VALID,0,
2012-06-24, 01:19:05,VALID,917.351,VALID,0,VALID,97.7779,VALID,0,VALID,17.9704,VALID,145,VALID,0,
2012-06-24, 01:20:05,VALID,917.334,VALID,0,VALID,97.7779,VALID,0,VALID,18.0094,VALID,145,VALID,0,
2012-06-24, 01:21:05,VALID,917.324,VALID,0,VALID,97.7779,VALID,0,VALID,18.0289,VALID,145,VALID,0,
2012-06-24, 01:22:05,VALID,917.334,VALID,0,VALID,97.7779,VALID,0,VALID,18.0679,VALID,145,VALID,0,
2012-06-24, 01:23:05,VALID,917.372,VALID,0,VALID,97.7932,VALID,0,VALID,18.0874,VALID,145,VALID,0,
2012-06-24, 01:24:05,VALID,917.406,VALID,0,VALID,97.7932,VALID,0,VALID,18.0484,VALID,145,VALID,0,
2012-06-24, 01:25:05,VALID,917.437,VALID,0,VALID,97.7932,VALID,0,VALID,18.0275,VALID,145,VALID,0,
2012-06-24, 01:26:05,VALID,917.418,VALID,0,VALID,97.7856,VALID,0,VALID,18.0874,VALID,145,VALID,0,
2012-06-24, 01:27:05,VALID,917.402,VALID,0,VALID,97.8008,VALID,0,VALID,18.1069,VALID,145,VALID,0,
2012-06-24, 01:28:05,VALID,917.43,VALID,0,VALID,97.7856,VALID,0,VALID,18.0874,VALID,145,VALID,0,
2012-06-24, 01:29:05,VALID,917.401,VALID,0,VALID,97.7856,VALID,0,VALID,18.1264,VALID,145,VALID,0,
2012-06-24, 01:30:05,VALID,917.381,VALID,0,VALID,97.8008,VALID,0,VALID,18.1849,VALID,145,VALID,0,
2012-06-24, 01:31:05,VALID,917.393,VALID,0,VALID,97.8008,VALID,0,VALID,18.2044,VALID,145,VALID,0,
2012-06-24, 01:32:05,VALID,917.354,VALID,0,VALID,97.8237,VALID,0,VALID,18.2447,VALID,145,VALID,0,
2012-06-24, 01:33:05,VALID,917.352,VALID,0,VALID,97.7932,VALID,0,VALID,18.2823,VALID,145,VALID,0,
2012-06-24, 01:34:05,VALID,917.34,VALID,0,VALID,97.7856,VALID,0,VALID,18.2628,VALID,145,VALID,0,
2012-06-24, 01:35:05,VALID,917.323,VALID,0,VALID,97.8008,VALID,0,VALID,18.2628,VALID,145,VALID,0,
2012-06-24, 01:36:05,VALID,917.334,VALID,0,VALID,97.7932,VALID,0.107441,VALID,18.2433,VALID,137,VALID,0,
2012-06-24, 01:37:05,VALID,917.312,VALID,0,VALID,97.7856,VALID,0,VALID,18.2642,VALID,136,VALID,0,
2012-06-24, 01:38:05,VALID,917.309,VALID,0,VALID,97.7932,VALID,0,VALID,18.2628,VALID,132,VALID,0,
2012-06-24, 01:39:05,VALID,917.314,VALID,0,VALID,97.8008,VALID,0,VALID,18.2628,VALID,128,VALID,0,
2012-06-24, 01:40:05,VALID,917.31,VALID,0,VALID,97.7932,VALID,0,VALID,18.2823,VALID,128,VALID,0,
2012-06-24, 01:41:05,VALID,917.266,VALID,0,VALID,97.7932,VALID,0,VALID,18.2628,VALID,122,VALID,0,
2012-06-24, 01:42:05,VALID,917.24,VALID,0,VALID,97.8008,VALID,0.107441,VALID,18.2823,VALID,129,VALID,0,
2012-06-24, 01:43:05,VALID,917.219,VALID,0,VALID,97.7932,VALID,0.107441,VALID,18.2615,VALID,140,VALID,0,
2012-06-24, 01:44:04,VALID,917.219,VALID,0,VALID,97.8084,VALID,0,VALID,18.2823,VALID,136,VALID,0,
2012-06-24, 01:45:04,VALID,917.201,VALID,0,VALID,97.8008,VALID,0,VALID,18.3018,VALID,136,VALID,0,
2012-06-24, 01:46:04,VALID,917.16,VALID,0,VALID,97.7932,VALID,0,VALID,18.2615,VALID,136,VALID,0,
2012-06-24, 01:47:04,VALID,917.185,VALID,0,VALID,97.7932,VALID,0,VALID,18.2615,VALID,136,VALID,0,
2012-06-24, 01:48:04,VALID,917.188,VALID,0,VALID,97.7932,VALID,0.107441,VALID,18.242,VALID,128,VALID,0,
2012-06-24, 01:49:04,VALID,917.218,VALID,0,VALID,97.7856,VALID,0.107441,VALID,18.2628,VALID,123,VALID,0,
2012-06-24, 01:50:04,VALID,917.214,VALID,0,VALID,97.7932,VALID,0,VALID,18.2628,VALID,115,VALID,0,
2012-06-24, 01:51:04,VALID,917.246,VALID,0,VALID,97.7932,VALID,0.107441,VALID,18.2615,VALID,111,VALID,0,
2012-06-24, 01:52:04,VALID,917.229,VALID,0,VALID,97.7932,VALID,0.107441,VALID,18.2628,VALID,111,VALID,0,
2012-06-24, 01:53:04,VALID,917.205,VALID,0,VALID,97.8008,VALID,0,VALID,18.2823,VALID,118,VALID,0,
2012-06-24, 01:54:04,VALID,917.234,VALID,0,VALID,97.7932,VALID,0,VALID,18.2823,VALID,123,VALID,0,
2012-06-24, 01:55:04,VALID,917.237,VALID,0,VALID,97.7932,VALID,0,VALID,18.2823,VALID,123,VALID,0,
2012-06-24, 01:56:04,VALID,917.224,VALID,0,VALID,97.8084,VALID,0.107441,VALID,18.2628,VALID,132,VALID,0,
2012-06-24, 01:57:04,VALID,917.213,VALID,0,VALID,97.8084,VALID,0,VALID,18.2628,VALID,138,VALID,0,
2012-06-24, 01:58:04,VALID,917.214,VALID,0,VALID,97.816,VALID,0,VALID,18.242,VALID,135,VALID,0,
2012-06-24, 01:59:04,VALID,917.232,VALID,0,VALID,97.8084,VALID,0.107441,VALID,18.2628,VALID,128,VALID,0,
2012-06-24, 02:00:04,VALID,917.248,VALID,0,VALID,97.8084,VALID,0,VALID,18.2433,VALID,129,VALID,0,
2012-06-24, 02:01:04,VALID,917.244,VALID,0,VALID,97.816,VALID,0,VALID,18.2433,VALID,123,VALID,0,
2012-06-24, 02:02:04,VALID,917.247,VALID,0,VALID,97.8084,VALID,0,VALID,18.2225,VALID,128,VALID,0,
2012-06-24, 02:03:04,VALID,917.25,VALID,0,VALID,97.7856,VALID,0.107441,VALID,18.2628,VALID,140,VALID,0,
2012-06-24, 02:04:04,VALID,917.248,VALID,0,VALID,97.8008,VALID,0.107441,VALID,18.2823,VALID,138,VALID,0,
2012-06-24, 02:05:04,VALID,917.231,VALID,0,VALID,97.8084,VALID,0.107441,VALID,18.2823,VALID,148,VALID,0,
2012-06-24, 02:06:04,VALID,917.236,VALID,0,VALID,97.816,VALID,0.107441,VALID,18.2823,VALID,121,VALID,0,
2012-06-24, 02:07:04,VALID,917.228,VALID,0,VALID,97.8084,VALID,0,VALID,18.2809,VALID,119,VALID,0,
2012-06-24, 02:08:04,VALID,917.19,VALID,0,VALID,97.8008,VALID,0,VALID,18.2823,VALID,144,VALID,0,
2012-06-24, 02:09:04,VALID,917.215,VALID,0,VALID,97.816,VALID,0,VALID,18.2628,VALID,130,VALID,0,
2012-06-24, 02:10:04,VALID,917.179,VALID,0,VALID,97.8237,VALID,0,VALID,18.2447,VALID,133,VALID,0,
2012-06-24, 02:11:04,VALID,917.194,VALID,0,VALID,97.816,VALID,0,VALID,18.2044,VALID,126,VALID,0,
2012-06-24, 02:12:04,VALID,917.194,VALID,0,VALID,97.8084,VALID,0,VALID,18.2252,VALID,126,VALID,0,
2012-06-24, 02:13:04,VALID,917.172,VALID,0,VALID,97.8008,VALID,0,VALID,18.2238,VALID,135,VALID,0,
2012-06-24, 02:14:04,VALID,917.124,VALID,0,VALID,97.7932,VALID,0,VALID,18.2447,VALID,127,VALID,0,
2012-06-24, 02:15:04,VALID,917.076,VALID,0,VALID,97.8313,VALID,0,VALID,18.2238,VALID,117,VALID,0,
2012-06-24, 02:16:04,VALID,917.096,VALID,0,VALID,97.8084,VALID,0,VALID,18.1849,VALID,98,VALID,0,
2012-06-24, 02:17:04,VALID,917.082,VALID,0,VALID,97.816,VALID,0,VALID,18.2044,VALID,113,VALID,0,
2012-06-24, 02:18:04,VALID,917.058,VALID,0,VALID,97.8237,VALID,0,VALID,18.1862,VALID,112,VALID,0,
2012-06-24, 02:19:04,VALID,917.063,VALID,0,VALID,97.816,VALID,0,VALID,18.1667,VALID,117,VALID,0,
2012-06-24, 02:20:04,VALID,917.039,VALID,0,VALID,97.8389,VALID,0,VALID,18.1667,VALID,107,VALID,0,
2012-06-24, 02:21:04,VALID,917.032,VALID,0,VALID,97.8237,VALID,0,VALID,18.1472,VALID,122,VALID,0,
2012-06-24, 02:22:04,VALID,917.046,VALID,0,VALID,97.816,VALID,0,VALID,18.1278,VALID,131,VALID,0,
2012-06-24, 02:23:04,VALID,917.019,VALID,0,VALID,97.8237,VALID,0,VALID,18.1083,VALID,125,VALID,0,
2012-06-24, 02:24:04,VALID,917.044,VALID,0,VALID,97.8237,VALID,0,VALID,18.1083,VALID,114,VALID,0,
2012-06-24, 02:25:04,VALID,917.043,VALID,0,VALID,97.8465,VALID,0,VALID,18.0874,VALID,133,VALID,0,
2012-06-24, 02:26:04,VALID,916.997,VALID,0,VALID,97.8313,VALID,0,VALID,18.1083,VALID,160,VALID,0,
2012-06-24, 02:27:04,VALID,917.01,VALID,0,VALID,97.8313,VALID,0,VALID,18.1083,VALID,142,VALID,0,
2012-06-24, 02:28:04,VALID,916.99,VALID,0,VALID,97.8313,VALID,0,VALID,18.1083,VALID,144,VALID,0,
2012-06-24, 02:29:04,VALID,916.949,VALID,0,VALID,97.8465,VALID,0,VALID,18.1083,VALID,158,VALID,0,
2012-06-24, 02:30:04,VALID,916.97,VALID,0,VALID,97.8237,VALID,0,VALID,18.0693,VALID,158,VALID,0,
2012-06-24, 02:31:04,VALID,916.97,VALID,0,VALID,97.8542,VALID,0,VALID,18.0693,VALID,158,VALID,0,
2012-06-24, 02:32:04,VALID,916.957,VALID,0,VALID,97.8618,VALID,0,VALID,18.0498,VALID,158,VALID,0,
2012-06-24, 02:33:04,VALID,916.951,VALID,0,VALID,97.8465,VALID,0,VALID,18.0303,VALID,158,VALID,0,
2012-06-24, 02:34:04,VALID,916.941,VALID,0,VALID,97.8313,VALID,0,VALID,18.0108,VALID,144,VALID,0,
2012-06-24, 02:35:04,VALID,916.947,VALID,0,VALID,97.8465,VALID,0,VALID,18.0108,VALID,143,VALID,0,
2012-06-24, 02:36:04,VALID,916.911,VALID,0,VALID,97.8313,VALID,0,VALID,17.9718,VALID,143,VALID,0,
2012-06-24, 02:37:04,VALID,916.945,VALID,0,VALID,97.8542,VALID,0,VALID,17.9913,VALID,144,VALID,0,
2012-06-24, 02:38:04,VALID,916.975,VALID,0,VALID,97.877,VALID,0,VALID,17.9704,VALID,143,VALID,0,
2012-06-24, 02:39:04,VALID,916.95,VALID,0,VALID,97.8542,VALID,0,VALID,17.9704,VALID,143,VALID,0,
2012-06-24, 02:40:04,VALID,916.963,VALID,0,VALID,97.8465,VALID,0,VALID,17.9704,VALID,143,VALID,0,
2012-06-24, 02:41:04,VALID,916.972,VALID,0,VALID,97.8694,VALID,0.107441,VALID,17.9704,VALID,144,VALID,0,
2012-06-24, 02:42:04,VALID,916.977,VALID,0,VALID,97.8694,VALID,0,VALID,17.9509,VALID,143,VALID,0,
2012-06-24, 02:43:04,VALID,916.973,VALID,0.2,VALID,97.8694,VALID,0,VALID,17.9509,VALID,143,VALID,0,
2012-06-24, 02:44:04,VALID,916.924,VALID,0,VALID,97.8618,VALID,0.107441,VALID,17.9314,VALID,143,VALID,0,
2012-06-24, 02:45:04,VALID,916.943,VALID,0,VALID,97.877,VALID,0,VALID,17.9523,VALID,123,VALID,0,
2012-06-24, 02:46:04,VALID,916.89,VALID,0,VALID,97.8542,VALID,0,VALID,17.9119,VALID,120,VALID,0,
2012-06-24, 02:47:04,VALID,916.902,VALID,0,VALID,97.877,VALID,0.107441,VALID,17.9328,VALID,119,VALID,0,
2012-06-24, 02:48:04,VALID,916.89,VALID,0,VALID,97.8694,VALID,0,VALID,17.873,VALID,149,VALID,0,
2012-06-24, 02:49:04,VALID,916.888,VALID,0,VALID,97.8618,VALID,0,VALID,17.8535,VALID,111,VALID,0,
2012-06-24, 02:50:04,VALID,916.857,VALID,0,VALID,97.8847,VALID,0,VALID,17.8521,VALID,119,VALID,0,
2012-06-24, 02:51:04,VALID,916.876,VALID,0,VALID,97.8847,VALID,0,VALID,17.834,VALID,116,VALID,0,
2012-06-24, 02:52:04,VALID,916.865,VALID,0,VALID,97.8542,VALID,0,VALID,17.834,VALID,136,VALID,0,
2012-06-24, 02:53:04,VALID,916.851,VALID,0,VALID,97.9075,VALID,0,VALID,17.795,VALID,132,VALID,0,
2012-06-24, 02:54:04,VALID,916.815,VALID,0,VALID,97.9075,VALID,0,VALID,17.8353,VALID,133,VALID,0,
2012-06-24, 02:55:04,VALID,916.809,VALID,0,VALID,97.9075,VALID,0,VALID,17.8158,VALID,116,VALID,0,
2012-06-24, 02:56:04,VALID,916.801,VALID,0,VALID,97.8847,VALID,0,VALID,17.8158,VALID,144,VALID,0,
2012-06-24, 02:57:04,VALID,916.775,VALID,0,VALID,97.877,VALID,0,VALID,17.8548,VALID,156,VALID,0,
2012-06-24, 02:58:04,VALID,916.763,VALID,0,VALID,97.8923,VALID,0,VALID,17.8743,VALID,156,VALID,0,
2012-06-24, 02:59:04,VALID,916.786,VALID,0,VALID,97.8999,VALID,0,VALID,17.8938,VALID,156,VALID,0,
2012-06-24, 03:00:04,VALID,916.775,VALID,0,VALID,97.8999,VALID,0,VALID,17.8548,VALID,156,VALID,0,
2012-06-24, 03:01:04,VALID,916.758,VALID,0,VALID,97.8847,VALID,0,VALID,17.8158,VALID,156,VALID,0,
2012-06-24, 03:02:04,VALID,916.765,VALID,0,VALID,97.8923,VALID,0,VALID,17.7768,VALID,156,VALID,0,
2012-06-24, 03:03:04,VALID,916.742,VALID,0,VALID,97.8999,VALID,0,VALID,17.7768,VALID,156,VALID,0,
2012-06-24, 03:04:04,VALID,916.761,VALID,0,VALID,97.8847,VALID,0,VALID,17.7184,VALID,156,VALID,0,
2012-06-24, 03:05:04,VALID,916.744,VALID,0,VALID,97.9075,VALID,0,VALID,17.6794,VALID,152,VALID,0,
2012-06-24, 03:06:04,VALID,916.733,VALID,0,VALID,97.9228,VALID,0,VALID,17.7184,VALID,127,VALID,0,
2012-06-24, 03:07:04,VALID,916.706,VALID,0,VALID,97.9075,VALID,0,VALID,17.7574,VALID,127,VALID,0,
2012-06-24, 03:08:04,VALID,916.693,VALID,0,VALID,97.8999,VALID,0,VALID,17.7768,VALID,127,VALID,0,
2012-06-24, 03:09:04,VALID,916.707,VALID,0,VALID,97.8923,VALID,0,VALID,17.7574,VALID,127,VALID,0,
2012-06-24, 03:10:04,VALID,916.712,VALID,0,VALID,97.9075,VALID,0,VALID,17.7184,VALID,127,VALID,0,
2012-06-24, 03:11:04,VALID,916.704,VALID,0,VALID,97.9075,VALID,0,VALID,17.7379,VALID,127,VALID,0,
2012-06-24, 03:12:04,VALID,916.689,VALID,0,VALID,97.9228,VALID,0,VALID,17.7184,VALID,127,VALID,0,
2012-06-24, 03:13:04,VALID,916.692,VALID,0,VALID,97.9152,VALID,0,VALID,17.6989,VALID,126,VALID,0,
2012-06-24, 03:14:04,VALID,916.699,VALID,0,VALID,97.9304,VALID,0,VALID,17.6599,VALID,127,VALID,0,
2012-06-24, 03:15:04,VALID,916.669,VALID,0,VALID,97.9304,VALID,0,VALID,17.6209,VALID,127,VALID,0,
2012-06-24, 03:16:04,VALID,916.675,VALID,0,VALID,97.9228,VALID,0,VALID,17.6014,VALID,126,VALID,0,
2012-06-24, 03:17:04,VALID,916.632,VALID,0,VALID,97.9304,VALID,0,VALID,17.5624,VALID,127,VALID,0,
2012-06-24, 03:18:04,VALID,916.669,VALID,0,VALID,97.9152,VALID,0,VALID,17.4845,VALID,127,VALID,0,
2012-06-24, 03:19:04,VALID,916.629,VALID,0,VALID,97.9304,VALID,0,VALID,17.465,VALID,126,VALID,0,
2012-06-24, 03:20:04,VALID,916.648,VALID,0,VALID,97.9456,VALID,0,VALID,17.5429,VALID,127,VALID,0,
2012-06-24, 03:21:04,VALID,916.648,VALID,0,VALID,97.9456,VALID,0,VALID,17.5819,VALID,127,VALID,0,
2012-06-24, 03:22:04,VALID,916.648,VALID,0,VALID,97.938,VALID,0,VALID,17.5638,VALID,127,VALID,0,
2012-06-24, 03:23:04,VALID,916.602,VALID,0,VALID,97.938,VALID,0,VALID,17.5624,VALID,127,VALID,0,
2012-06-24, 03:24:04,VALID,916.571,VALID,0,VALID,97.9533,VALID,0,VALID,17.5638,VALID,127,VALID,0,
2012-06-24, 03:25:04,VALID,916.574,VALID,0,VALID,97.938,VALID,0,VALID,17.5819,VALID,127,VALID,0,
2012-06-24, 03:26:04,VALID,916.519,VALID,0,VALID,97.9456,VALID,0,VALID,17.5416,VALID,127,VALID,0,
2012-06-24, 03:27:04,VALID,916.508,VALID,0,VALID,97.9609,VALID,0,VALID,17.5416,VALID,127,VALID,0,
2012-06-24, 03:28:04,VALID,916.529,VALID,0,VALID,97.9456,VALID,0.107441,VALID,17.5819,VALID,126,VALID,0,
2012-06-24, 03:29:04,VALID,916.532,VALID,0,VALID,97.9456,VALID,0,VALID,17.5416,VALID,127,VALID,0,
2012-06-24, 03:30:04,VALID,916.51,VALID,0,VALID,97.9533,VALID,0,VALID,17.5221,VALID,127,VALID,0,
2012-06-24, 03:31:04,VALID,916.512,VALID,0,VALID,97.9761,VALID,0,VALID,17.5819,VALID,146,VALID,0,
2012-06-24, 03:32:04,VALID,916.505,VALID,0,VALID,97.9533,VALID,0,VALID,17.5416,VALID,127,VALID,0,
2012-06-24, 03:33:04,VALID,916.507,VALID,0,VALID,97.9761,VALID,0,VALID,17.5416,VALID,138,VALID,0,
2012-06-24, 03:34:04,VALID,916.482,VALID,0,VALID,97.9685,VALID,0,VALID,17.5819,VALID,149,VALID,0,
2012-06-24, 03:35:04,VALID,916.501,VALID,0,VALID,97.9609,VALID,0,VALID,17.5611,VALID,131,VALID,0,
2012-06-24, 03:36:04,VALID,916.495,VALID,0,VALID,97.9609,VALID,0,VALID,17.5611,VALID,141,VALID,0,
2012-06-24, 03:37:04,VALID,916.495,VALID,0,VALID,97.9609,VALID,0,VALID,17.5416,VALID,141,VALID,0,
2012-06-24, 03:38:04,VALID,916.483,VALID,0,VALID,97.9456,VALID,0,VALID,17.5611,VALID,132,VALID,0,
2012-06-24, 03:39:04,VALID,916.495,VALID,0,VALID,97.9761,VALID,0,VALID,17.6027,VALID,125,VALID,0,
2012-06-24, 03:40:04,VALID,916.487,VALID,0,VALID,97.9914,VALID,0,VALID,17.5624,VALID,118,VALID,0,
2012-06-24, 03:41:04,VALID,916.496,VALID,0,VALID,97.9533,VALID,0,VALID,17.5221,VALID,114,VALID,0,
2012-06-24, 03:42:04,VALID,916.483,VALID,0,VALID,97.9761,VALID,0,VALID,17.5429,VALID,115,VALID,0,
2012-06-24, 03:43:04,VALID,916.459,VALID,0,VALID,97.9609,VALID,0,VALID,17.4831,VALID,105,VALID,0,
2012-06-24, 03:44:04,VALID,916.441,VALID,0,VALID,97.9685,VALID,0,VALID,17.4831,VALID,104,VALID,0,
2012-06-24, 03:45:04,VALID,916.453,VALID,0,VALID,97.9533,VALID,0,VALID,17.4845,VALID,105,VALID,0,
2012-06-24, 03:46:04,VALID,916.431,VALID,0,VALID,97.9914,VALID,0,VALID,17.4636,VALID,105,VALID,0,
2012-06-24, 03:47:04,VALID,916.399,VALID,0,VALID,97.999,VALID,0,VALID,17.4636,VALID,122,VALID,0,
2012-06-24, 03:48:04,VALID,916.4,VALID,0,VALID,97.9761,VALID,0,VALID,17.4247,VALID,113,VALID,0,
2012-06-24, 03:49:04,VALID,916.375,VALID,0,VALID,97.9685,VALID,0,VALID,17.4052,VALID,113,VALID,0,
2012-06-24, 03:50:04,VALID,916.352,VALID,0,VALID,97.9914,VALID,0,VALID,17.4065,VALID,113,VALID,0,
2012-06-24, 03:51:04,VALID,916.346,VALID,0,VALID,97.9914,VALID,0,VALID,17.426,VALID,113,VALID,0,
2012-06-24, 03:52:04,VALID,916.357,VALID,0,VALID,97.999,VALID,0,VALID,17.3675,VALID,113,VALID,0,
2012-06-24, 03:53:04,VALID,916.313,VALID,0,VALID,97.9761,VALID,0,VALID,17.348,VALID,108,VALID,0,
2012-06-24, 03:54:04,VALID,916.37,VALID,0,VALID,97.9761,VALID,0,VALID,17.2895,VALID,109,VALID,0,
2012-06-24, 03:55:04,VALID,916.337,VALID,0,VALID,98.0066,VALID,0,VALID,17.309,VALID,134,VALID,0,
2012-06-24, 03:56:04,VALID,916.343,VALID,0,VALID,97.999,VALID,0,VALID,17.309,VALID,122,VALID,0,
2012-06-24, 03:57:04,VALID,916.325,VALID,0,VALID,97.9838,VALID,0,VALID,17.4065,VALID,113,VALID,0,
2012-06-24, 03:58:04,VALID,916.381,VALID,0,VALID,97.999,VALID,0,VALID,17.465,VALID,97,VALID,0,